Pittsfield, MA

11:03 AM EDT on March 24, 2017 (GMT -0400)
Pittsfield Municipal

Weather History for KPSF - January, 2012

Change the Weather History Date:

Tuesday, January 24, 2012

  Actual Average Record
Temperature  
Mean Temperature 40 °F 20 °F  
Max Temperature 48 °F 29 °F 55 °F (1999)
Min Temperature 32 °F 11 °F -13 °F (1945)
Degree Days  
Heating Degree Days 25 45  
Month to date heating degree days 952 1073  
Since 1 July heating degree days 3239 3911  
Cooling Degree Days 0 0  
Month to date cooling degree days 0 0  
Year to date cooling degree days 0 0  
Moisture  
Dew Point 34 °F    
Average Humidity 85    
Maximum Humidity 100    
Minimum Humidity 70    
Precipitation  
Precipitation 0.00 in 0.08 in 1.43 in (1953)
Month to date precipitation 1.86 2.31  
Year to date precipitation 1.86 2.31  
Sea Level Pressure  
Sea Level Pressure 29.94 in    
Wind  
Wind Speed 10 mph (West)    
Max Wind Speed 21 mph    
Max Gust Speed 33 mph    
Visibility 10 miles    
Events      
T = Trace of Precipitation, MM = Missing Value Source: NWS Daily Summary

Daily Weather History Graph

Daily Weather History Graph

Search for Another Location

Airport or City:

Trip Planner

Search our weather history database for the weather conditions in past years. The results will help you decide how hot, cold, wet, or windy it might be!

Date:

Astronomy

Jan. 24, 2012 Rise Set
Actual Time 7:14 AM EST 4:56 PM EST
Civil Twilight 6:44 AM EST 5:26 PM EST
Nautical Twilight 6:10 AM EST 6:00 PM EST
Astronomical Twilight 5:36 AM EST 6:34 PM EST
Moon 7:39 AM EST 6:48 PM EST
Length of Visible Light 10h 42m
Length of Day
9h 41m
New Moon, 2% of the Moon is Illuminated
Jan 24
New Moon
Jan 30
First Quarter
Feb 7
Full
Feb 14
Last Quarter
Feb 21
New

Hourly Weather History & Observations

Time (EST) Temp. Windchill Dew Point Humidity Pressure Visibility Wind Dir Wind Speed Gust Speed Precip Events Conditions
12:54 AM 46.9 °F - 45.0 °F 93% 29.81 in 10.0 mi SSW 15.0 mph 23.0 mph N/A   Overcast
1:54 AM 46.0 °F 40.6 °F 44.1 °F 93% 29.83 in 10.0 mi SW 11.5 mph - N/A   Overcast
2:54 AM 44.1 °F 37.4 °F 43.0 °F 96% 29.83 in 9.0 mi SW 13.8 mph - N/A   Overcast
3:54 AM 44.1 °F 39.0 °F 42.1 °F 93% 29.83 in 10.0 mi SW 9.2 mph 18.4 mph N/A   Mostly Cloudy
4:54 AM 43.0 °F 37.2 °F 41.0 °F 93% 29.83 in 10.0 mi SW 10.4 mph - N/A   Overcast
5:54 AM 42.1 °F 39.2 °F 41.0 °F 96% 29.85 in 9.0 mi WSW 4.6 mph - N/A   Overcast
6:54 AM 41.0 °F 37.1 °F 39.9 °F 96% 29.86 in 10.0 mi SW 5.8 mph - N/A   Overcast
7:54 AM 39.9 °F 35.1 °F 39.0 °F 97% 29.87 in 9.0 mi SW 6.9 mph - N/A   Overcast
8:19 AM 39.2 °F 33.0 °F 37.4 °F 93% 29.88 in 10.0 mi SW 9.2 mph - N/A   Scattered Clouds
8:54 AM 39.9 °F 35.8 °F 37.9 °F 93% 29.89 in 10.0 mi SW 5.8 mph - N/A   Overcast
9:54 AM 42.1 °F 39.2 °F 37.9 °F 85% 29.91 in 10.0 mi Variable 4.6 mph - N/A   Mostly Cloudy
11:54 AM 43.0 °F 38.2 °F 35.1 °F 74% 29.88 in 10.0 mi WSW 8.1 mph - N/A   Partly Cloudy
12:23 PM 44.6 °F 39.2 °F 35.6 °F 71% 29.89 in 10.0 mi WSW 10.4 mph - N/A   Mostly Cloudy
12:54 PM 45.0 °F 40.1 °F 35.1 °F 68% 29.88 in 10.0 mi West 9.2 mph - N/A   Overcast
1:54 PM 43.0 °F 37.2 °F 34.0 °F 71% 29.89 in 10.0 mi NW 10.4 mph - N/A   Overcast
2:54 PM 41.0 °F 34.3 °F 32.0 °F 70% 29.92 in 10.0 mi WNW 11.5 mph - N/A   Overcast
3:50 PM 39.2 °F 32.5 °F 30.2 °F 70% 29.94 in 10.0 mi WNW 10.4 mph - N/A   Overcast
3:54 PM 39.0 °F 34.8 °F 30.9 °F 73% 29.94 in 10.0 mi NW 5.8 mph - N/A   Overcast
4:54 PM 36.0 °F 28.0 °F 30.0 °F 79% 29.97 in 9.0 mi NW 11.5 mph - N/A   Overcast
5:54 PM 34.0 °F 27.2 °F 28.9 °F 82% 30.00 in 10.0 mi NW 8.1 mph - N/A   Overcast
6:54 PM 34.0 °F 25.5 °F 28.0 °F 79% 30.01 in 10.0 mi WNW 11.5 mph 18.4 mph N/A   Overcast
7:01 PM 33.8 °F 27.0 °F 28.4 °F 81% 30.00 in 10.0 mi NW 8.1 mph 20.7 mph N/A   Overcast
7:16 PM 33.8 °F 25.8 °F 28.4 °F 81% 30.01 in 10.0 mi WNW 10.4 mph 18.4 mph N/A   Overcast
7:54 PM 32.0 °F 24.2 °F 28.0 °F 85% 30.05 in 10.0 mi NW 9.2 mph 21.9 mph N/A   Overcast
8:10 PM 32.0 °F 24.8 °F 26.6 °F 80% 30.03 in 10.0 mi NW 8.1 mph 20.7 mph N/A   Overcast
8:54 PM 32.0 °F 20.8 °F 27.0 °F 82% 30.06 in 10.0 mi NW 17.3 mph 25.3 mph N/A   Overcast
9:03 PM 32.0 °F 21.2 °F 26.6 °F 80% 30.04 in 10.0 mi NW 16.1 mph 24.2 mph N/A   Overcast
10:23 PM 32.0 °F 23.0 °F 24.8 °F 75% 30.05 in 10.0 mi NW 11.5 mph 19.6 mph N/A   Overcast
10:54 PM 32.0 °F 20.5 °F 24.1 °F 73% 30.06 in 10.0 mi WNW 18.4 mph 33.4 mph N/A   Overcast
11:54 PM 32.0 °F 22.5 °F 24.1 °F 73% 30.06 in 10.0 mi WNW 12.7 mph 23.0 mph N/A   Overcast